FW7807 Weather Reports


Display with metric or nautical units.
time (UTC)temp
F
wind
direction
speed
MPH
gust
MPH
rain 1hr
in
rain 24hr
in
rain mn
in
humidity
%
barometer
mb
20260508084539 57 0 1.0 4.0 0.00 0.24 0.00 87 1013.2
20260508083041 57 308 2.0 5.0 0.00 0.24 0.00 87 1013.4
20260508081539 57 0 0.0 4.0 0.00 0.24 0.00 87 1013.4
20260508080040 57 327 0.0 5.0 0.00 0.24 0.00 88 1013.1
20260508074541 57 331 2.0 6.0 0.00 0.24 0.00 88 1012.8
20260508073036 57 315 2.0 6.0 0.00 0.24 0.00 88 1012.7
20260508071542 57 346 2.0 5.0 0.00 0.24 0.00 89 1012.5
20260508070041 56 340 2.0 4.0 0.00 0.24 0.00 89 1012.5
20260508064538 55 346 0.0 4.0 0.00 0.24 0.00 90 1012.4
20260508063037 55 324 2.0 4.0 0.00 0.24 0.00 89 1012.5
20260508061542 54 344 1.0 3.0 0.00 0.24 0.00 89 1012.3
20260508060043 54 350 1.0 3.0 0.00 0.24 0.00 89 1011.9
20260508054602 54 0 0.0 3.0 0.00 0.24 0.00 89 1011.6
20260508053041 54 301 2.0 5.0 0.00 0.24 0.00 89 1011.8
20260508051539 54 312 3.0 6.0 0.00 0.24 0.00 89 1011.7
20260508050043 54 320 5.0 9.0 0.00 0.24 0.00 89 1011.5
20260508044553 54 320 3.0 5.0 0.00 0.24 0.00 89 1011.3
20260508043040 54 312 3.0 5.0 0.00 0.24 0.00 89 1011.3
20260508041548 54 310 3.0 7.0 0.00 0.24 0.00 89 1011.4
20260508040043 54 302 2.0 5.0 0.00 0.24 0.00 89 1011.1
20260508034542 54 288 2.0 5.0 0.00 0.24 0.00 89 1010.9
20260508033040 54 0 0.0 0.0 0.00 0.24 0.00 89 1011.0
20260508031553 54 0 0.0 2.0 0.00 0.24 0.00 89 1011.2
20260508030051 54 316 0.0 3.0 0.00 0.24 0.00 89 1011.5
20260508024536 54 0 0.0 2.0 0.00 0.24 0.00 88 1011.5
20260508023046 54 0 0.0 3.0 0.00 0.24 0.00 89 1011.6
20260508021539 54 0 0.0 3.0 0.00 0.24 0.00 89 1011.6
20260508020038 55 314 1.0 3.0 0.00 0.24 0.00 88 1011.7
20260508014539 55 0 0.0 3.0 0.00 0.24 0.00 88 1011.7
20260508013043 55 0 1.0 4.0 0.00 0.24 0.00 88 1011.8
20260508011544 55 324 2.0 5.0 0.00 0.24 0.00 88 1012.0
20260508010042 55 304 0.0 3.0 0.00 0.24 0.00 88 1012.1
20260508004540 56 282 2.0 5.0 0.00 0.24 0.00 88 1012.5
20260508003036 56 293 1.0 4.0 0.00 0.24 0.00 88 1012.6
20260508001537 56 295 2.0 3.0 0.00 0.24 0.00 88 1012.7
20260508000042 56 275 2.0 5.0 0.00 0.24 0.00 88 1012.9
20260507234540 56 296 2.0 5.0 0.00 0.24 0.00 88 1013.1
20260507233040 56 320 3.0 8.0 0.00 0.24 0.00 88 1013.2
20260507231544 57 292 3.0 8.0 0.00 0.24 0.00 88 1013.2
20260507230041 57 287 4.0 7.0 0.00 0.24 0.00 88 1013.4
20260507224554 57 292 3.0 8.0 0.00 0.24 0.00 87 1013.1
20260507223044 57 309 2.0 5.0 0.00 0.24 0.00 87 1013.2
20260507221540 58 345 1.0 3.0 0.00 0.24 0.00 87 1012.9
20260507220042 58 0 1.0 3.0 0.00 0.24 0.00 87 1012.7
20260507214541 58 324 1.0 4.0 0.00 0.24 0.24 87 1012.8
20260507213047 58 38 1.0 3.0 0.00 0.24 0.24 87 1012.8
20260507211539 58 39 1.0 3.0 0.00 0.24 0.24 87 1012.5
20260507210106 58 43 2.0 4.0 0.00 0.24 0.24 87 1012.7
20260507204537 58 27 1.0 4.0 0.00 0.24 0.24 87 1012.8
20260507203035 58 39 2.0 4.0 0.00 0.24 0.24 87 1012.7
20260507201539 58 36 1.0 5.0 0.00 0.24 0.24 87 1012.6
20260507200052 58 34 2.0 6.0 0.00 0.24 0.24 87 1012.5
20260507194537 58 5 3.0 6.0 0.00 0.24 0.24 87 1012.4
20260507193102 58 49 3.0 8.0 0.00 0.24 0.24 87 1012.0
20260507191534 58 73 4.0 9.0 0.00 0.24 0.24 86 1011.7
20260507190041 58 98 4.0 7.0 0.03 0.24 0.24 86 1011.5
20260507184539 58 72 2.0 6.0 0.07 0.24 0.24 86 1011.5
20260507183040 58 61 6.0 10.0 0.15 0.24 0.24 86 1011.3
20260507181539 58 33 6.0 14.0 0.18 0.23 0.23 86 1010.9
20260507180037 58 47 8.0 14.0 0.18 0.20 0.20 85 1011.2
20260507174541 59 333 6.0 13.0 0.16 0.17 0.17 84 1011.1
20260507173045 60 298 1.0 6.0 0.07 0.08 0.08 83 1011.1
20260507171539 60 21 2.0 7.0 0.04 0.05 0.05 83 1011.1
20260507170040 61 278 4.0 12.0 0.01 0.02 0.02 82 1010.7
20260507164538 62 39 2.0 8.0 0.00 0.00 0.00 82 1010.6
20260507163041 63 131 7.0 13.0 0.00 0.00 0.00 82 1010.0
20260507161544 63 126 10.0 16.0 0.00 0.00 0.00 82 1009.8
20260507160059 64 115 5.0 13.0 0.00 0.00 0.00 82 1010.0
20260507154538 65 88 11.0 16.0 0.00 0.00 0.00 82 1009.9
20260507153038 65 99 7.0 11.0 0.00 0.00 0.00 80 1009.9
20260507151536 65 145 7.0 12.0 0.00 0.00 0.00 78 1010.0
20260507150043 66 126 8.0 13.0 0.00 0.00 0.00 79 1009.9
20260507144549 65 121 6.0 12.0 0.00 0.00 0.00 78 1009.7
20260507143038 65 116 9.0 15.0 0.00 0.00 0.00 80 1009.8
20260507141540 65 126 7.0 13.0 0.00 0.00 0.00 81 1009.7
20260507140037 65 141 5.0 12.0 0.00 0.00 0.00 80 1009.8
20260507134549 65 188 6.0 13.0 0.00 0.00 0.00 78 1010.1
20260507133043 66 187 3.0 11.0 0.00 0.00 0.00 78 1010.2
20260507131539 65 109 8.0 13.0 0.00 0.00 0.00 77 1010.1
20260507130042 66 121 10.0 19.0 0.00 0.00 0.00 75 1010.3
20260507124538 67 105 13.0 22.0 0.00 0.00 0.00 72 1010.6
20260507123042 67 98 11.0 20.0 0.00 0.00 0.00 71 1010.6
20260507121540 67 96 13.0 19.0 0.00 0.00 0.00 70 1010.7
20260507120040 67 101 14.0 20.0 0.00 0.00 0.00 70 1010.8
20260507114545 67 86 15.0 20.0 0.00 0.00 0.00 72 1010.7
20260507113039 67 92 17.0 25.0 0.00 0.00 0.00 71 1010.6
20260507111548 67 117 13.0 18.0 0.00 0.00 0.00 71 1011.0
20260507110036 67 110 14.0 22.0 0.00 0.00 0.00 72 1011.0
20260507104536 67 93 16.0 23.0 0.00 0.00 0.00 73 1011.2
20260507103041 66 89 16.0 25.0 0.00 0.00 0.00 73 1011.2
20260507101538 66 111 17.0 23.0 0.00 0.00 0.00 74 1011.1
20260507100037 66 107 14.0 23.0 0.00 0.00 0.00 74 1011.3
20260507094541 66 122 13.0 19.0 0.00 0.00 0.00 74 1011.2
20260507093043 66 105 14.0 21.0 0.00 0.00 0.00 73 1011.5
20260507091538 66 103 11.0 18.0 0.00 0.00 0.00 72 1011.3